Total_Precipitation_Accumulation
0.03 0.03 0.03 0.03 0.03 0.03 0.04 0.06 0.11 0.11 0.05 0.01 0.00 0.00 0.00 0.02 0.04 0.08 0.13 0.12 0.11 0.09 0.06 0.03 0.02 0.02 0.02 0.02 0.02 0.03 0.04 0.07 0.10 0.15 0.22 0.28 0.35 0.45
0.03 0.04 0.05 0.04 0.04 0.04 0.05 0.07 0.12 0.16 0.12 0.04 0.01 0.01 0.02 0.03 0.05 0.11 0.14 0.11 0.11 0.10 0.07 0.04 0.03 0.02 0.02 0.02 0.02 0.02 0.02 0.03 0.04 0.06 0.11 0.18 0.27 0.38
0.04 0.05 0.06 0.07 0.07 0.07 0.07 0.08 0.08 0.12 0.16 0.09 0.04 0.04 0.06 0.08 0.11 0.14 0.14 0.12 0.11 0.12 0.10 0.08 0.05 0.03 0.03 0.02 0.02 0.02 0.02 0.02 0.02 0.03 0.05 0.10 0.18 0.25
0.05 0.05 0.05 0.06 0.08 0.07 0.06 0.06 0.08 0.12 0.19 0.18 0.11 0.08 0.08 0.10 0.12 0.13 0.10 0.09 0.10 0.13 0.11 0.09 0.06 0.04 0.03 0.02 0.02 0.02 0.02 0.02 0.02 0.02 0.04 0.09 0.14 0.19
0.03 0.03 0.04 0.05 0.06 0.05 0.06 0.08 0.09 0.12 0.17 0.20 0.13 0.10 0.08 0.07 0.11 0.14 0.14 0.15 0.09 0.08 0.07 0.05 0.04 0.04 0.03 0.03 0.02 0.02 0.02 0.01 0.01 0.04 0.09 0.14 0.17 0.20
0.01 0.02 0.03 0.05 0.07 0.09 0.08 0.09 0.10 0.12 0.13 0.14 0.12 0.08 0.07 0.07 0.12 0.19 0.19 0.14 0.11 0.07 0.06 0.04 0.03 0.03 0.05 0.10 0.06 0.04 0.03 0.03 0.05 0.11 0.18 0.20 0.23 0.24
0.01 0.02 0.03 0.05 0.09 0.11 0.10 0.10 0.11 0.12 0.12 0.14 0.12 0.09 0.06 0.09 0.14 0.19 0.18 0.13 0.10 0.07 0.07 0.06 0.06 0.15 0.34 0.46 0.32 0.13 0.08 0.07 0.10 0.18 0.25 0.26 0.26 0.25
0.02 0.02 0.02 0.03 0.05 0.06 0.06 0.07 0.09 0.12 0.15 0.17 0.15 0.10 0.06 0.11 0.18 0.23 0.22 0.17 0.12 0.07 0.06 0.07 0.16 0.47 0.85 1.08 0.77 0.33 0.22 0.18 0.16 0.20 0.25 0.26 0.25 0.22
0.04 0.04 0.03 0.03 0.05 0.05 0.05 0.06 0.06 0.10 0.18 0.23 0.22 0.14 0.11 0.17 0.26 0.27 0.20 0.17 0.15 0.11 0.09 0.11 0.27 0.55 0.76 0.94 0.93 0.59 0.45 0.37 0.29 0.31 0.31 0.29 0.25 0.22
0.04 0.05 0.06 0.06 0.06 0.06 0.04 0.04 0.06 0.11 0.20 0.24 0.25 0.21 0.23 0.26 0.30 0.28 0.22 0.17 0.13 0.10 0.10 0.15 0.31 0.50 0.59 0.77 1.09 1.03 0.86 0.68 0.54 0.49 0.45 0.40 0.32 0.28
0.01 0.02 0.04 0.05 0.06 0.07 0.06 0.06 0.09 0.14 0.22 0.33 0.38 0.41 0.43 0.38 0.30 0.24 0.21 0.19 0.19 0.15 0.14 0.19 0.34 0.51 0.67 0.87 1.01 1.15 1.11 0.94 0.76 0.62 0.53 0.44 0.36 0.33
0.01 0.01 0.03 0.06 0.07 0.08 0.07 0.09 0.13 0.21 0.36 0.51 0.56 0.57 0.48 0.38 0.31 0.26 0.25 0.26 0.28 0.26 0.17 0.18 0.30 0.47 0.76 1.04 0.99 0.88 0.89 0.96 0.91 0.81 0.67 0.48 0.31 0.23
0.04 0.05 0.06 0.10 0.11 0.08 0.09 0.13 0.23 0.37 0.56 0.71 0.65 0.50 0.36 0.25 0.22 0.22 0.21 0.22 0.25 0.25 0.18 0.18 0.30 0.45 0.63 0.88 0.99 0.90 0.75 0.71 0.74 0.85 0.86 0.64 0.38 0.25
0.09 0.09 0.11 0.16 0.13 0.12 0.16 0.26 0.37 0.52 0.63 0.66 0.53 0.37 0.25 0.17 0.16 0.14 0.14 0.15 0.17 0.19 0.17 0.18 0.29 0.45 0.56 0.62 0.76 0.80 0.76 0.78 0.78 0.81 0.81 0.75 0.55 0.44
0.11 0.17 0.20 0.19 0.20 0.23 0.33 0.45 0.50 0.54 0.59 0.52 0.36 0.29 0.23 0.16 0.14 0.13 0.13 0.14 0.15 0.15 0.14 0.16 0.25 0.39 0.50 0.51 0.57 0.60 0.70 0.92 0.96 0.91 0.82 0.72 0.62 0.51
0.12 0.21 0.30 0.33 0.35 0.40 0.45 0.49 0.49 0.56 0.54 0.35 0.24 0.22 0.19 0.16 0.14 0.13 0.13 0.14 0.15 0.16 0.16 0.17 0.21 0.30 0.43 0.49 0.51 0.54 0.60 0.91 1.07 0.94 0.83 0.77 0.68 0.60
0.15 0.21 0.27 0.31 0.36 0.40 0.39 0.42 0.42 0.40 0.38 0.29 0.23 0.19 0.18 0.16 0.17 0.16 0.15 0.13 0.14 0.17 0.19 0.20 0.22 0.26 0.34 0.41 0.47 0.53 0.60 0.74 0.85 0.78 0.66 0.66 0.68 0.62
0.17 0.25 0.35 0.41 0.45 0.46 0.42 0.40 0.38 0.33 0.30 0.27 0.24 0.21 0.20 0.19 0.20 0.19 0.17 0.16 0.16 0.16 0.17 0.18 0.18 0.17 0.18 0.28 0.38 0.40 0.46 0.55 0.59 0.53 0.42 0.41 0.51 0.49
0.15 0.26 0.39 0.49 0.52 0.49 0.42 0.38 0.40 0.39 0.37 0.33 0.26 0.22 0.21 0.20 0.18 0.17 0.16 0.16 0.15 0.14 0.13 0.11 0.10 0.07 0.05 0.18 0.37 0.40 0.37 0.38 0.35 0.32 0.27 0.23 0.28 0.32
0.18 0.30 0.40 0.46 0.48 0.48 0.43 0.40 0.42 0.44 0.41 0.34 0.27 0.24 0.21 0.17 0.16 0.16 0.15 0.13 0.10 0.08 0.07 0.06 0.07 0.05 0.04 0.07 0.21 0.33 0.32 0.25 0.20 0.18 0.16 0.15 0.18 0.20
0.22 0.30 0.37 0.37 0.35 0.35 0.34 0.34 0.37 0.40 0.37 0.31 0.27 0.23 0.19 0.16 0.16 0.15 0.11 0.08 0.06 0.04 0.04 0.05 0.07 0.05 0.04 0.03 0.08 0.15 0.20 0.18 0.13 0.09 0.08 0.08 0.08 0.08
0.19 0.27 0.33 0.31 0.27 0.24 0.22 0.22 0.25 0.27 0.26 0.23 0.21 0.19 0.18 0.17 0.15 0.12 0.09 0.06 0.05 0.04 0.03 0.04 0.05 0.05 0.05 0.04 0.05 0.06 0.07 0.07 0.05 0.04 0.04 0.04 0.03 0.04
0.16 0.18 0.22 0.26 0.25 0.21 0.18 0.16 0.16 0.17 0.18 0.17 0.17 0.18 0.17 0.15 0.12 0.09 0.06 0.04 0.03 0.02 0.02 0.02 0.02 0.02 0.02 0.02 0.02 0.02 0.02 0.02 0.01 0.01 0.02 0.02 0.01 0.01